Location: Deurze
(52.9838°N, 6.6090°E)
Time: 09:41:04
(UTC+00:00)

Daily predictions for brighter satellites

Satellite Brightness Start Highest point End
(mag) Time Altitude Azimuth Time Altitude Azimuth Time Altitude Azimuth
SJ-6B 3.1 17:58:54 10° SE 18:02:12 38° ENE 18:05:34 10° N
Cosmos 2263 Rocket 4.5 18:00:02 10° NW 18:02:43 13° N 18:05:25 10° NNE
Cosmos 1943 Rocket 2.2 17:58:34 10° SSW 18:04:05 72° ESE 18:09:41 10° NE
Meteor 1-31 Rocket 3.9 18:01:47 10° ESE 18:04:22 20° ENE 18:06:58 10° NNE
NOSS 2-2 (E) 3.6 18:01:40 10° SSW 18:04:39 31° SE 18:07:23 10° ENE
Cosmos 2026 Rocket 4.0 17:59:03 10° S 18:05:07 59° E 18:11:06 10° NNE
Resurs 01 Rocket 1.6 18:00:45 10° SSE 18:05:08 66° ENE 18:09:32 10° N
Cosmos 1271 Rocket 2.9 18:01:57 10° N 18:05:11 37° ENE 18:08:26 10° SE
Cosmos 1626 Rocket 3.7 18:01:13 10° S 18:05:40 86° WNW 18:10:08 10° N
Okean 1-7 Rocket 4.0 18:08:34 10° SSE 18:12:51 43° E 18:17:09 10° NNE
Cosmos 1992 Rocket 4.5 18:09:29 10° NNW 18:14:42 67° WSW 18:19:51 10° SSE
COSMO-SKYMED 1 2.4 18:11:17 10° NNE 18:15:25 73° ESE 18:19:31 10° S
Cosmos 2151 2.8 18:11:47 10° S 18:15:50 78° E 18:19:55 10° NNE
Helios 1A Rocket 3.9 18:14:35 10° NE 18:16:46 16° E 18:18:55 10° SE
Lacrosse 4 Rocket 3.6 18:16:08 10° W 18:19:08 21° NNW 18:22:08 10° NNE
Cosmos 1842 3.6 18:16:28 10° NNW 18:19:40 56° W 18:22:51 10° S
Cosmos 2344 4.4 18:13:28 10° WNW 18:20:13 40° N 18:27:39 10° ENE
Cosmos 2297 Rocket 4.3 18:18:53 10° NNW 18:21:46 14° NNE 18:24:40 10° NE
Cosmos 44 Rocket 4.0 18:18:24 10° NW 18:23:23 44° NE 18:28:00 12° ESE
SKYMED 2 4.4 18:19:55 10° N 18:24:11 56° WNW 18:28:26 10° SSW
Cosmos 1140 Rocket 4.3 18:20:12 10° SSE 18:24:38 29° E 18:29:06 10° NE
Cosmos 1763 Rocket 4.1 18:19:56 10° NNW 18:24:50 39° NE 18:29:46 10° ESE
NOSS 2-2 (C) 3.2 18:24:23 10° WSW 18:27:28 57° NW 18:30:26 10° NE
Terra 3.1 18:24:36 11° ESE 18:27:53 22° ENE 18:31:26 10° N
CZ-4B R/B 4.1 18:23:56 10° ESE 18:28:22 28° ENE 18:32:52 10° N
ERS-1 Rocket 4.0 18:25:21 10° ESE 18:29:27 26° ENE 18:33:34 10° N
Cosmos 1867 4.4 18:24:10 10° NW 18:29:28 52° SW 18:34:43 10° SSE
Cosmos 1758 Rocket 4.3 18:25:32 10° SSW 18:29:55 59° WNW 18:34:21 10° N
Cosmos 2082 Rocket 2.8 18:25:38 10° NW 18:31:17 60° WSW 18:36:53 10° SSE
CARTOSAT-1 4.3 18:27:51 10° S 18:31:58 54° W 18:36:07 10° NNW
CZ-4C R/B 3.2 18:27:25 10° NW 18:34:07 71° SW 18:42:34 10° SSE
Cosmos 1953 Rocket 4.1 18:32:13 10° SSE 18:36:05 34° E 18:39:59 10° NNE
Cosmos 2278 Rocket 2.3 18:32:17 10° SW 18:37:57 81° WNW 18:43:41 10° NNE
Meteor 1-5 Rocket 4.4 18:32:27 10° S 18:38:11 54° E 18:43:50 10° NNE
Cosmos 1607 4.0 18:33:47 10° NW 18:40:08 88° SW 18:46:31 10° SE
NOSS 2-2 (D) 2.6 18:39:11 10° SW 18:42:25 84° NW 18:45:26 10° NE
CSL-04 Rocket 3.7 18:38:51 10° SSE 18:44:06 61° ENE 18:49:27 10° N
COBE Rocket 4.0 18:43:34 10° NNE 18:47:59 44° E 18:52:25 10° S
Cosmos 1066 Rocket 4.2 18:42:53 10° N 18:48:23 60° ENE 18:53:43 10° SSE
SL-24 DEB 4.2 18:45:03 10° N 18:49:33 60° E 18:54:03 10° S
SPOT 5 3.1 18:45:23 10° SSE 18:50:38 68° ENE 18:55:51 10° N
Meteor 2-4 Rocket 3.6 18:48:27 10° NNW 18:54:03 88° E 18:59:27 10° SSE
Meteor 2-10 4.1 18:51:06 10° S 18:56:19 55° E 19:01:24 10° NNE
Cosmos 2369 Rocket 3.0 18:51:38 10° SSE 18:56:21 27° ESE 19:01:03 10° NE
Cosmos 1269 Rocket 4.2 18:51:39 10° S 18:56:41 49° ESE 19:01:46 10° NE
SeaSat 1 2.4 18:53:18 13° SE 18:57:35 71° NE 19:02:29 10° NNW
CENTAUR R/B 3.0 18:51:42 10° WSW 18:57:37 65° NW 19:05:11 10° NE
Cosmos 1553 Rocket 4.0 18:54:03 10° NNW 19:00:11 84° W 19:06:22 10° S
SL-4 R/B 3.8 18:58:24 10° WSW 19:00:27 16° SW 19:02:30 10° S
Cosmos 1092 Rocket 4.4 18:56:05 10° SSW 19:02:23 70° WNW 19:08:46 10° N
Meteor 1-25 Rocket 4.4 18:57:24 10° SSW 19:02:57 77° WNW 19:08:38 10° NNE
Meteor 1-18 Rocket 4.2 18:59:13 10° N 19:04:54 67° ENE 19:10:27 10° SSE
Cosmos 220 Rocket 3.8 19:01:18 10° NNW 19:05:19 60° ENE 19:07:30 25° SE
CZ-4 R/B 1.2 19:02:52 13° SSE 19:06:12 69° ENE 19:10:06 10° N
Cosmos 921 Rocket 2.8 19:03:14 10° SSW 19:07:23 70° ESE 19:11:40 10° NNE
NOSS 3-2 (C) 3.5 19:04:43 10° SSW 19:09:28 42° ESE 19:15:09 10° NE
Cosmos 2297 4.3 19:07:43 10° SSE 19:12:40 32° ESE 19:17:39 10° NE
ADEOS 3.7 19:11:31 20° SE 19:15:01 56° ENE 19:20:08 10° N
Cosmos 2084 3.2 19:11:02 10° NW 19:15:11 86° NE 19:16:58 33° SE
Cosmos 1825 Rocket 4.1 19:12:30 10° SSW 19:16:52 62° WNW 19:21:18 10° N
Okean O Rocket 2.5 19:16:08 29° E 19:16:58 31° ENE 19:20:51 10° N
Cosmos 1656 Rocket 3.5 19:11:45 10° SSW 19:17:13 69° ESE 19:22:40 10° NE
Cosmos 1076 Rocket 3.4 19:13:10 10° SSW 19:17:21 84° W 19:21:36 10° N
Cosmos 540 Rocket 3.4 19:13:00 10° NNW 19:18:10 77° ENE 19:21:30 22° SSE
Cosmos 1805 3.1 19:15:15 10° SSW 19:18:32 68° WNW 19:21:50 10° N
USA 234 3.3 19:16:13 24° E 19:20:27 77° NNE 19:27:01 10° WNW
Cosmos 1241 Rocket 4.4 19:14:27 10° SSW 19:20:34 60° ESE 19:26:40 10° NE
Timation 2 Rocket 4.5 19:16:12 10° SW 19:22:10 58° NW 19:28:04 10° NNE
Cosmos 2315 Rocket 4.0 19:17:58 10° N 19:24:15 62° ENE 19:29:00 18° SSE
Cosmos 2227 Rocket 4.3 19:21:24 10° NNW 19:24:37 15° NNE 19:27:45 10° NE
Cosmos 468 Rocket 4.1 19:20:03 10° NNW 19:25:17 58° ENE 19:27:33 32° ESE
USA 276 2.6 19:23:53 10° WSW 19:26:08 38° SSW 19:26:08 38° SSW
In-Cosmos 22 4.0 19:22:50 10° N 19:28:08 71° ENE 19:31:27 23° SSE
Cosmos 841 Rocket 4.2 19:23:26 10° NNW 19:28:10 35° NE 19:29:25 31° E
COSMOS 2406 4.3 19:23:07 10° NW 19:28:34 45° WSW 19:33:59 10° S
Cosmos 1238 Rocket 4.3 19:27:02 10° NNW 19:29:55 28° W 19:32:34 10° SSW
Cosmos 1842 Rocket 3.9 19:26:27 10° NNW 19:30:46 65° W 19:35:00 10° S
PAYLOAD B 4.2 19:28:46 14° SSE 19:33:35 90° NE 19:39:10 10° NNW
Cosmos 2266 Rocket 3.9 19:29:19 10° S 19:35:35 75° E 19:41:59 10° NNE
Meteor 1-31 Rocket 3.7 19:34:00 11° S 19:37:12 40° W 19:40:31 10° NNW
CZ-4B R/B 4.2 19:40:40 26° NE 19:40:40 26° NE 19:43:24 10° N
Resurs 01 Rocket 4.4 19:38:53 10° SW 19:41:56 18° W 19:45:00 10° NW
NOSS 3-2 (A) 3.5 19:37:56 10° WSW 19:43:09 68° NW 19:49:37 10° NE
SL-14 R/B 3.0 19:42:58 10° N 19:46:49 85° ENE 19:47:16 69° SSE
Cosmos 1655 Rocket 4.1 19:44:27 26° SSE 19:47:56 52° E 19:54:08 10° NNE
Cosmos 1943 Rocket 4.0 19:43:27 10° WSW 19:48:20 30° NW 19:53:16 10° NNE
Okean-O 2.7 19:48:12 51° ENE 19:48:21 52° ENE 19:52:37 10° N
Helios 1A Rocket 3.6 19:46:01 10° N 19:49:06 41° WNW 19:52:12 10° SW
Cosmos 2263 Rocket 4.3 19:46:04 10° NNW 19:49:13 15° NNE 19:51:57 11° NE
S3M 4.2 19:43:31 10° NNW 19:49:56 77° W 19:56:07 11° S
Intercosmos 25 4.0 19:49:42 10° N 19:51:44 34° NNE 19:51:44 34° NNE
NOSS 2-2 (E) 4.4 19:51:09 10° W 19:53:56 30° NNW 19:54:42 26° N
Cosmos 1536 2.9 19:57:15 58° NNE 19:57:15 58° NNE 20:00:22 10° NNE
Ariane Rocket 3.9 19:57:32 32° NE 19:57:32 32° NE 20:01:45 10° N
Cosmos 1151 Rocket 2.8 19:53:27 10° NNW 19:57:43 88° W 19:58:17 67° S
Cosmos 407 Rocket 3.4 19:56:28 10° SSW 20:01:48 82° ESE 20:07:09 10° NNE
Cosmos 44 Rocket 4.0 19:59:54 10° NW 20:04:57 51° SW 20:06:36 37° S
Terra 2.0 20:03:13 38° S 20:04:58 68° WSW 20:09:42 10° NNW
Cosmos 1140 Rocket 4.2 20:00:58 10° SW 20:06:04 54° WNW 20:11:13 10° NNE
Cosmos 2297 Rocket 3.3 20:02:48 10° NNW 20:07:46 30° NE 20:08:27 29° NE
ERS-1 Rocket 3.4 20:05:11 27° S 20:07:50 59° W 20:12:47 10° NNW
Spot 2 Rocket 3.4 20:07:39 63° SE 20:08:27 79° ENE 20:13:33 10° NNW
CZ-4B R/B 3.5 20:05:37 26° S 20:08:36 62° WSW 20:13:56 10° NNW
Cosmos 2278 Rocket 4.4 20:18:19 10° W 20:22:54 24° NW 20:27:31 10° NNE
USA 267 3.6 20:25:36 45° SSE 20:25:36 45° SSE 20:30:50 10° SW
CZ-4B R/B 3.5 20:30:11 72° NE 20:30:11 72° NE 20:35:07 10° NNW
SL-08 R/B 3.4 20:29:11 10° NNE 20:33:48 70° WNW 20:33:53 69° W
SeaSat 1 4.4 20:32:55 16° SSW 20:35:22 24° WSW 20:39:19 10° NW
IRS-1C Rocket 4.3 20:36:42 59° NNE 20:36:42 59° NNE 20:41:18 10° N
Cosmos 2344 4.1 20:29:03 10° NW 20:36:17 53° NNE 20:39:10 39° ENE
Cosmos 2369 Rocket 2.5 20:34:17 10° SW 20:39:56 67° NW 20:45:37 10° NNE
CZ-4 R/B 4.2 20:38:31 10° WSW 20:40:41 14° W 20:42:53 10° NW
Cosmos 1244 Rocket 4.4 20:43:06 72° ENE 20:43:06 72° ENE 20:49:07 10° NNE
CENTAUR R/B 4.0 20:43:21 10° WNW 20:49:33 39° N 20:56:16 13° ENE
Okean O Rocket 2.8 20:53:22 39° W 20:53:22 39° W 20:57:13 10° NNW
Cosmos 2297 4.2 20:50:59 10° SW 20:56:33 57° NW 21:02:11 10° NNE
SPOT 3 Rocket 3.9 20:58:50 63° NW 20:58:50 63° NW 21:03:18 10° NNW
NOSS 3-2 (C) 3.8 20:54:51 10° WSW 21:00:07 56° NNW 21:06:37 10° NE
Meteor 1-21 4.4 20:54:38 10° NNW 20:59:41 67° N 20:59:41 67° N
USA 234 3.4 21:03:33 56° SSW 21:03:42 56° SW 21:10:09 10° WNW
Cosmos 841 Rocket 4.4 21:05:10 10° NW 21:09:25 44° W 21:09:25 44° W
Cosmos 2227 Rocket 3.4 21:05:13 10° NNW 21:09:33 33° NNE 21:09:33 33° NNE
SJ 16-02 3.8 21:15:26 15° N 21:15:26 15° N 21:16:19 10° NNE
Nadezhda 1 Rocket 4.2 21:18:55 10° NNW 21:24:36 69° NW 21:24:36 69° NW
Cosmos 2263 Rocket 3.6 21:29:47 10° NNW 21:33:37 30° NNE 21:33:37 30° NNE
Ariane Rocket 4.4 21:37:37 36° NW 21:37:37 36° NW 21:40:56 10° NNW
Lacrosse 4 Rocket 4.4 21:36:31 10° N 21:36:46 10° N 21:36:46 10° N
Cosmos 2297 Rocket 3.4 21:46:41 10° NW 21:50:14 40° NW 21:50:14 40° NW
USA 281 4.2 22:18:09 39° NNE 22:18:09 39° NNE 22:23:09 10° NNW
Cosmos 2369 Rocket 4.4 22:20:44 10° W 22:25:02 21° NNW 22:29:20 10° NNE
CENTAUR R/B 3.9 22:34:53 10° NW 22:41:56 45° NNE 22:43:20 42° NE
Cosmos 2344 4.2 22:43:21 10° NW 22:49:09 53° WNW 22:49:09 53° WNW
Cosmos 2227 Rocket 4.2 22:49:12 10° NW 22:51:20 23° NW 22:51:20 23° NW
Cosmos 2263 Rocket 4.4 23:13:38 10° NW 23:15:16 20° NW 23:15:16 20° NW
